Lid_Strength_Index
1 -0 -2 -1 -1 -1 -2 -2 -2 -2 -2 -2 -2 -2 -2 -2 -2 -2 -2 -2 -3 -2 -2 -2 -2 -2 -2 -2 -2 -2 -2 -2 -2 -2 -2 -2 -2 -2 -2 -2 -2 -1 -2
-0 -1 -1 -2 -2 -2 -2 -2 -2 -2 -2 -2 -2 -2 -2 -2 -2 -2 -2 -2 -2 -2 -2 -2 -1 -2 -2 -2 -2 -2 -2 -2 -2 -2 -2 -2 -2 -2 -2 -2 -2 -1 -2
-0 -1 -1 -2 -2 -2 -2 -2 -2 -2 -2 -2 -2 -2 -2 -2 -2 -2 -2 -2 -2 -2 -2 -2 -2 -2 -2 -2 -3 -3 -3 -3 -3 -2 -2 -1 -1 -2 -2 -3 -3 -2 -2
-0 -1 -1 -1 -2 -2 -2 -2 -2 -2 -2 -2 -2 -2 -2 -2 -2 -2 -2 -2 -2 -2 -2 -2 -2 -2 -2 -2 -3 -3 -3 -3 -3 -3 -0 -0 -1 -3 -3 -3 -2 -2 -2
0 -1 -1 -1 -2 -2 -2 -2 -2 -2 -2 -2 -2 -2 -2 -2 -2 -2 -2 -2 -2 -2 -2 -2 -2 -2 -2 -2 -2 -3 -2 -2 -2 -1 1 -0 -1 -2 -3 -2 -2 -2 -2
0 -0 -1 -1 -2 -2 -2 -2 -2 -2 -2 -2 -2 -2 -2 -2 -2 -2 -2 -2 -2 -2 -2 -2 -2 -2 -2 -2 -2 -2 -2 -2 -1 -0 -1 -1 -1 -2 -3 -2 -2 -2 -2
0 -0 -1 -1 -1 -1 -2 -2 -2 -2 -2 -2 -2 -2 -2 -2 -2 -2 -2 -2 -2 -2 -2 -2 -2 -2 -2 -2 -3 -2 -2 -1 1 0 -0 -0 -1 -2 -3 -3 -2 -2 -2
0 -0 -1 0 -0 -1 -1 -2 -2 -2 -2 -2 -2 -2 -2 -2 -2 -2 -2 -2 -2 -2 -2 -2 -2 -2 -2 -2 -2 -2 -2 -1 1 1 1 -0 -2 -3 -3 -3 -2 -2 -3
-0 -0 -0 -0 -0 1 -0 -1 -1 -2 -2 -2 -2 -3 -2 -2 -2 -2 -2 -2 -2 -2 -2 -2 -2 -2 -2 -2 -2 -2 -2 -1 1 0 -1 -0 -2 -3 -3 -3 -2 -2 -1
0 -0 -0 -0 -0 -0 -0 1 0 -1 -1 -2 -2 -2 -1 -2 -2 -2 -2 -2 -2 -2 -2 -2 -2 -2 -2 -2 -2 -1 -1 -0 1 0 -1 -1 -2 -3 -2 -2 -1 -1 -0
1 0 -0 0 -0 -0 -0 1 1 0 -0 -1 -0 0 1 1 0 0 -1 -2 -2 -2 -2 -2 -1 -1 -1 -1 -1 -1 0 2 2 1 -1 -2 -2 -2 -1 -1 -0 -0 -0
2 1 0 0 -0 -0 -1 0 -0 -0 -0 0 1 2 2 2 1 1 1 -0 -1 -1 -2 -1 -1 -0 1 3 2 1 3 3 3 2 -1 -2 -2 -2 -1 -1 -0 -0 0
2 1 0 0 -0 -0 -0 -0 -0 -0 -0 1 2 2 2 2 2 2 2 3 2 1 1 1 2 3 3 3 3 3 3 4 4 4 -1 -2 -1 -1 -1 -0 0 0 1
3 2 1 0 1 -0 -0 -0 -0 -0 0 1 2 1 2 3 4 3 3 4 4 4 4 4 4 4 5 5 4 5 5 5 5 4 2 -0 -1 -0 -0 0 0 1 1
3 2 2 0 0 0 -0 -0 -0 -0 -0 0 1 1 2 3 4 4 4 4 4 5 4 4 5 5 6 6 6 6 6 6 6 5 5 2 0 0 0 1 1 1 1
2 2 2 1 0 -0 -0 -0 0 -0 -0 -0 0 1 1 2 4 4 4 4 4 3 4 4 5 6 7 7 7 7 7 7 7 7 7 5 2 1 1 1 1 1 2
3 2 2 1 0 0 0 -0 0 0 0 0 0 0 1 1 3 3 4 4 3 3 3 4 6 8 9 9 10 10 9 8 8 9 9 8 8 4 2 2 2 2 2
3 3 2 1 1 1 0 -0 1 0 1 0 0 0 0 1 2 4 4 4 4 5 6 6 7 10 11 11 12 13 13 12 11 11 10 10 9 9 6 3 3 3 3
3 2 2 1 2 1 1 0 2 2 1 1 1 0 1 1 1 3 4 4 4 6 7 7 9 10 11 12 12 13 14 14 14 13 13 11 10 11 11 7 5 4 4
3 2 2 2 2 2 2 2 3 3 2 1 1 1 1 1 1 2 4 4 4 7 8 8 10 10 12 12 13 13 14 15 15 16 15 13 12 13 13 12 12 9 5
3 3 2 2 3 2 3 3 3 3 3 4 2 2 1 1 1 2 3 4 5 7 8 9 10 11 12 12 13 14 14 15 16 16 16 16 16 15 15 14 13 13 11
4 2 2 2 3 2 2 2 2 3 5 2 4 3 2 1 1 2 3 4 5 6 8 10 11 11 12 13 14 14 17 17 16 16 16 16 17 16 16 15 15 14 14
6 3 2 2 3 2 2 4 6 5 6 6 5 4 4 2 1 2 3 4 5 6 8 9 11 11 12 13 13 12 16 17 18 17 17 17 17 17 17 16 16 15 15
6 4 2 2 2 3 3 4 4 3 3 3 2 4 6 4 2 2 3 4 5 5 7 10 10 10 11 13 12 11 12 15 18 20 18 17 18 18 18 18 17 16 15
8 7 5 4 4 3 3 4 4 3 3 7 7 7 8 8 4 3 3 4 4 5 6 8 10 10 10 11 11 11 12 14 16 17 19 19 18 18 18 18 18 18 16
8 8 7 5 5 5 3 5 5 4 7 7 7 7 8 7 5 4 4 3 3 4 6 8 9 9 10 9 10 10 11 13 15 17 18 18 18 18 18 18 18 18 17